This is the latest recevied weather packets stored in our database for station/object WB4ROX. If no packets are shown the sender has not sent any weather packets the latest 1 day(s).
| Time | Temp. | Humidity | Pressure | Rain* | Wind** | Luminosity | Snow |
|---|---|---|---|---|---|---|---|
| 1778025040 | 13.89° C | 54% | 1016.8 hPa | 0 mm | 0.89 m/s, 296° | 19 W/m² | - |
| 1778024737 | 14.44° C | 52% | 1017 hPa | 0 mm | 0.89 m/s, 120° | 27 W/m² | - |
| 1778024433 | 14.44° C | 51% | 1017.3 hPa | 0 mm | 0 m/s | 40 W/m² | - |
| 1778024131 | 14.44° C | 51% | 1017.1 hPa | 0 mm | 0 m/s | 35 W/m² | - |
| 1778023828 | 13.89° C | 52% | 1017.1 hPa | 0 mm | 1.34 m/s, 102° | 66 W/m² | - |
| 1778023526 | 13.89° C | 52% | 1017.4 hPa | 0 mm | 1.34 m/s, 337° | 54 W/m² | - |
| 1778023223 | 13.89° C | 51% | 1017.1 hPa | 0 mm | 1.79 m/s, 262° | 68 W/m² | - |
| 1778022920 | 14.44° C | 50% | 1017.4 hPa | 0 mm | 1.34 m/s, 78° | 65 W/m² | - |
| 1778022619 | 15° C | 48% | 1017.3 hPa | 0 mm | 2.24 m/s, 298° | 46 W/m² | - |
| 1778022315 | 15.56° C | 47% | 1017.3 hPa | 0 mm | 1.79 m/s, 84° | 68 W/m² | - |
| 1778022012 | 16.11° C | 45% | 1017.4 hPa | 0 mm | 2.24 m/s, 145° | 124 W/m² | - |
| 1778021709 | 16.11° C | 45% | 1017.5 hPa | 0 mm | 0.45 m/s, 82° | 144 W/m² | - |
| 1778021405 | 16.67° C | 43% | 1017.3 hPa | 0 mm | 0.89 m/s, 355° | 158 W/m² | - |
| 1778021102 | 17.22° C | 43% | 1017.3 hPa | 0 mm | 1.34 m/s, 277° | 208 W/m² | - |
| 1778020799 | 16.67° C | 43% | 1017.1 hPa | 0 mm | 0.45 m/s, 93° | 263 W/m² | - |
| 1778020496 | 16.67° C | 43% | 1017.3 hPa | 0 mm | 0.89 m/s, 326° | 262 W/m² | - |
| 1778020192 | 17.22° C | 43% | 1017.1 hPa | 0 mm | 0.45 m/s, 101° | 238 W/m² | - |
| 1778019889 | 17.22° C | 43% | 1017.4 hPa | 0 mm | 1.79 m/s, 17° | 306 W/m² | - |
| 1778019584 | 17.22° C | 42% | 1017.3 hPa | 0 mm | 1.34 m/s, 29° | 352 W/m² | - |
| 1778019282 | 17.78° C | 41% | 1017.3 hPa | 0 mm | 1.34 m/s, 318° | 204 W/m² | - |
| 1778018979 | 17.22° C | 41% | 1017.1 hPa | 0 mm | 0.89 m/s, 109° | 373 W/m² | - |
| 1778018676 | 17.22° C | 42% | 1016.9 hPa | 0 mm | 0.89 m/s, 107° | 426 W/m² | - |
| 1778018373 | 17.22° C | 43% | 1017 hPa | 0 mm | 0.45 m/s, 55° | 438 W/m² | - |
| 1778018072 | 17.22° C | 43% | 1017.3 hPa | 0 mm | 1.34 m/s, 94° | 240 W/m² | - |
| 1778017769 | 17.22° C | 44% | 1017 hPa | 0 mm | 0.89 m/s, 121° | 475 W/m² | - |
* Rain latest hour (hover to see other rain measurements)
** Current wind speed in m/s (hover to see current wind gust speed)